contact:dominique.lefevre@mio.osupytheas.fr, maurice.libes@osupytheas.fr, didier.mallarino@osupytheas.fr
Project:EMSO http://www.emso-fr.org/EMSO-France
Depth: 2436.0 m
Title:EMSO Ligure Ouest : Data MII capteur AQUADOPP
Date,Latitude,Longitude,X_East,Y_North,Z_Up,Amplitude_X,Amplitude_Y,Amplitude_Z,Batterie,SoundSpeed,Heading,Pitch,Roll,Pressure,TIS,Speed,Direction
, degrees North, degrees East, m.s-1, m.s-1,m.s-1, 1, 1, 1, Volt, m.s-1, degree, degree, degree, dbar, degree_C, m.s-1, degree
2024-04-11T00:04:02,42.805,6.029,-0.041,0.066,-0.005,104.0,102.0,102.0,13.4,1505.2,7.9,-0.8,1.8,2471.639,13.28,0.077,328.1
2024-04-11T00:07:03,42.805,6.029,-0.038,0.046,0.006,103.0,103.0,100.0,13.4,1505.2,1.7,-0.7,1.8,2471.653,13.29,0.059,320.4
2024-04-11T00:10:03,42.805,6.029,-0.021,0.061,0.0,103.0,102.0,101.0,13.4,1505.2,6.9,-0.7,1.8,2471.654,13.29,0.064,341.0
2024-04-11T00:13:03,42.805,6.029,-0.05,0.054,0.005,102.0,101.0,100.0,13.3,1505.2,354.5,-0.8,1.8,2471.645,13.29,0.073,317.2
2024-04-11T00:16:03,42.805,6.029,-0.058,0.049,-0.017,102.0,103.0,101.0,13.3,1505.2,355.3,-0.7,1.8,2471.663,13.29,0.075,310.2
2024-04-11T00:19:03,42.805,6.029,-0.033,0.055,0.014,103.0,101.0,101.0,13.4,1505.2,355.1,-0.7,1.8,2471.663,13.29,0.064,329.0
2024-04-11T00:22:03,42.805,6.029,-0.044,0.065,0.002,103.0,102.0,102.0,13.4,1505.2,6.2,-0.8,1.8,2471.676,13.29,0.078,325.9
2024-04-11T00:25:03,42.805,6.029,-0.04,0.042,-0.013,103.0,103.0,101.0,13.3,1505.2,0.0,-0.7,1.8,2471.649,13.29,0.057,316.4
2024-04-11T00:28:03,42.805,6.029,-0.011,0.051,0.016,103.0,103.0,101.0,13.4,1505.2,9.2,-0.8,1.8,2471.627,13.29,0.052,347.8
2024-04-11T00:31:03,42.805,6.029,-0.048,0.048,-0.027,103.0,101.0,101.0,13.4,1505.2,3.4,-0.7,1.8,2471.62,13.29,0.067,315.0
2024-04-11T00:34:03,42.805,6.029,-0.046,0.047,-0.01,102.0,102.0,101.0,13.4,1505.2,4.2,-0.7,1.8,2471.62,13.29,0.065,315.6
2024-04-11T00:37:03,42.805,6.029,-0.069,0.048,0.005,104.0,102.0,101.0,13.4,1505.2,352.1,-0.8,1.8,2471.612,13.29,0.084,304.8
2024-04-11T00:40:03,42.805,6.029,-0.07,0.061,-0.006,103.0,103.0,101.0,13.4,1505.2,355.4,-0.8,1.8,2471.65,13.29,0.092,311.1
2024-04-11T00:43:03,42.805,6.029,-0.04,0.055,0.011,102.0,103.0,101.0,13.3,1505.2,5.6,-0.7,1.8,2471.6,13.29,0.068,324.0
2024-04-11T00:46:03,42.805,6.029,-0.044,0.039,-0.015,102.0,102.0,101.0,13.4,1505.2,7.5,-0.7,1.8,2471.624,13.29,0.058,311.6
2024-04-11T00:49:03,42.805,6.029,-0.058,0.049,-0.002,104.0,102.0,101.0,13.3,1505.2,358.7,-0.8,1.8,2471.591,13.29,0.075,310.2
2024-04-11T00:52:03,42.805,6.029,-0.03,0.036,0.01,102.0,103.0,101.0,13.4,1505.2,9.4,-0.8,1.8,2471.588,13.29,0.046,320.2
2024-04-11T00:55:03,42.805,6.029,-0.038,0.045,-0.001,103.0,102.0,101.0,13.4,1505.2,2.6,-0.8,1.8,2471.585,13.29,0.058,319.8
2024-04-11T00:58:03,42.805,6.029,-0.028,0.046,-0.008,103.0,103.0,101.0,13.3,1505.2,3.0,-0.7,1.8,2471.62,13.29,0.053,328.7
2024-04-11T02:04:02,42.805,6.029,-0.063,0.05,-0.009,101.0,103.0,100.0,13.3,1505.2,355.2,-0.8,1.8,2472.046,13.28,0.08,308.4
2024-04-11T02:07:03,42.805,6.029,-0.034,0.047,0.013,103.0,103.0,101.0,13.4,1505.2,354.0,-0.8,1.8,2471.967,13.28,0.058,324.1
2024-04-11T02:10:03,42.805,6.029,-0.028,0.059,0.029,103.0,102.0,101.0,13.4,1505.2,8.5,-0.7,1.8,2471.941,13.28,0.065,334.6
2024-04-11T02:13:03,42.805,6.029,-0.05,0.043,-0.011,103.0,102.0,100.0,13.4,1505.2,3.5,-0.8,1.8,2471.912,13.28,0.065,310.7
2024-04-11T02:16:03,42.805,6.029,-0.044,0.044,-0.029,104.0,101.0,101.0,13.4,1505.2,6.6,-0.7,1.8,2471.892,13.29,0.062,315.0
2024-04-11T02:19:03,42.805,6.029,-0.054,0.063,-0.03,100.0,103.0,102.0,13.3,1505.2,3.2,-0.8,1.8,2471.845,13.29,0.082,319.4
2024-04-11T02:22:03,42.805,6.029,-0.037,0.045,0.026,103.0,102.0,101.0,13.3,1505.2,351.6,-0.8,1.9,2471.792,13.29,0.058,320.6
2024-04-11T02:25:03,42.805,6.029,-0.068,0.041,0.004,103.0,103.0,101.0,13.4,1505.2,351.8,-0.7,1.8,2471.733,13.29,0.079,301.1
2024-04-11T02:28:03,42.805,6.029,-0.052,0.041,-0.016,102.0,102.0,101.0,13.3,1505.2,8.1,-0.8,1.8,2471.738,13.29,0.066,308.3
2024-04-11T02:31:03,42.805,6.029,-0.051,0.034,-0.003,103.0,102.0,102.0,13.3,1505.2,354.7,-0.8,1.8,2471.692,13.29,0.061,303.7
2024-04-11T02:34:03,42.805,6.029,-0.026,0.068,0.003,102.0,102.0,101.0,13.3,1505.2,8.5,-0.8,1.8,2471.719,13.29,0.072,339.1
2024-04-11T02:37:03,42.805,6.029,-0.048,0.026,-0.023,102.0,102.0,101.0,13.3,1505.2,3.3,-0.7,1.8,2471.67,13.29,0.054,298.4
2024-04-11T02:40:03,42.805,6.029,-0.051,0.03,0.002,102.0,102.0,100.0,13.4,1505.2,355.1,-0.8,1.8,2471.661,13.29,0.059,300.5
2024-04-11T02:43:03,42.805,6.029,-0.043,0.039,0.004,103.0,101.0,99.0,13.4,1505.2,0.0,-0.8,1.8,2471.63,13.29,0.058,312.2
2024-04-11T02:46:03,42.805,6.029,-0.049,0.041,0.031,103.0,102.0,101.0,13.4,1505.2,8.2,-0.7,1.8,2471.634,13.29,0.063,309.9
2024-04-11T02:49:03,42.805,6.029,-0.059,0.054,-0.026,102.0,102.0,100.0,13.4,1505.2,4.6,-0.8,1.8,2471.581,13.29,0.079,312.5
2024-04-11T02:52:03,42.805,6.029,-0.054,0.056,-0.009,102.0,101.0,101.0,13.4,1505.2,355.6,-0.8,1.8,2471.61,13.29,0.077,316.0
2024-04-11T02:55:03,42.805,6.029,-0.044,0.055,-0.013,103.0,102.0,102.0,13.4,1505.2,3.6,-0.7,1.8,2471.638,13.29,0.07,321.3
2024-04-11T02:58:03,42.805,6.029,-0.058,0.036,-0.004,103.0,102.0,101.0,13.4,1505.2,353.3,-0.8,1.8,2471.602,13.29,0.068,301.8
2024-04-11T03:04:03,42.805,6.029,-0.035,0.033,0.027,103.0,102.0,101.0,13.4,1505.2,359.4,-0.8,1.8,2471.622,13.29,0.048,313.3
2024-04-11T03:07:03,42.805,6.029,-0.061,0.045,0.003,102.0,102.0,101.0,13.3,1505.2,1.6,-0.8,1.8,2471.598,13.29,0.075,306.4
2024-04-11T03:10:03,42.805,6.029,-0.044,0.017,0.024,103.0,102.0,101.0,13.4,1505.2,1.0,-0.8,1.8,2471.554,13.29,0.047,291.1
2024-04-11T03:13:03,42.805,6.029,-0.038,0.032,0.012,102.0,102.0,101.0,13.4,1505.2,358.4,-0.7,1.8,2471.581,13.29,0.049,310.1
2024-04-11T03:16:03,42.805,6.029,-0.052,0.059,-0.01,103.0,103.0,101.0,13.3,1505.2,2.8,-0.7,1.8,2471.58,13.29,0.078,318.6
2024-04-11T03:19:03,42.805,6.029,-0.064,0.038,-0.03,102.0,101.0,101.0,13.4,1505.2,357.5,-0.7,1.8,2471.556,13.29,0.074,300.7
2024-04-11T03:22:03,42.805,6.029,-0.056,0.052,-0.02,103.0,102.0,101.0,13.4,1505.2,1.5,-0.8,1.8,2471.528,13.29,0.076,312.9
2024-04-11T03:25:03,42.805,6.029,-0.032,0.011,-0.049,103.0,103.0,101.0,13.4,1505.2,2.2,-0.8,1.8,2471.574,13.29,0.033,289.0
2024-04-11T03:28:03,42.805,6.029,-0.041,0.059,0.003,102.0,102.0,101.0,13.4,1505.2,8.4,-0.8,1.8,2471.519,13.29,0.071,325.2
2024-04-11T03:31:03,42.805,6.029,-0.036,0.034,-0.039,103.0,102.0,101.0,13.4,1505.2,0.0,-0.8,1.9,2471.56,13.29,0.049,313.4
2024-04-11T03:34:03,42.805,6.029,-0.077,0.03,-0.019,102.0,102.0,105.0,13.4,1505.2,1.1,-0.8,1.8,2471.533,13.29,0.082,291.3
2024-04-11T03:37:03,42.805,6.029,-0.046,0.034,0.0,103.0,102.0,101.0,13.3,1505.2,8.4,-0.8,1.8,2471.529,13.29,0.057,306.5
2024-04-11T03:40:03,42.805,6.029,-0.051,0.058,-0.003,104.0,103.0,102.0,13.4,1505.2,5.3,-0.8,1.8,2471.516,13.29,0.077,318.7
2024-04-11T03:43:03,42.805,6.029,-0.049,0.047,-0.01,102.0,102.0,101.0,13.4,1505.2,2.3,-0.7,1.8,2471.577,13.29,0.067,313.8
2024-04-11T03:46:03,42.805,6.029,-0.055,0.04,-0.018,103.0,102.0,101.0,13.4,1505.2,357.4,-0.7,1.8,2471.583,13.29,0.068,306.0
2024-04-11T03:49:03,42.805,6.029,-0.057,0.032,0.0,104.0,102.0,101.0,13.3,1505.2,358.3,-0.7,1.8,2471.537,13.29,0.065,299.3
2024-04-11T03:52:03,42.805,6.029,-0.051,0.034,0.008,103.0,104.0,103.0,13.4,1505.2,6.9,-0.8,1.8,2471.556,13.29,0.061,303.7
2024-04-11T03:55:03,42.805,6.029,-0.037,0.038,0.004,103.0,102.0,102.0,13.4,1505.2,359.4,-0.8,1.8,2471.53,13.29,0.053,315.8
2024-04-11T03:58:03,42.805,6.029,-0.079,0.06,-0.022,103.0,101.0,101.0,13.3,1505.2,8.9,-0.8,1.9,2471.527,13.29,0.099,307.2
2024-04-11T04:01:03,42.805,6.029,-0.031,0.054,-0.008,104.0,102.0,101.0,13.4,1505.2,9.9,-0.8,1.8,2471.535,13.29,0.062,330.1
2024-04-11T04:04:02,42.805,6.029,-0.051,0.032,-0.014,103.0,102.0,101.0,13.4,1505.2,355.8,-0.7,1.8,2471.511,13.29,0.06,302.1
2024-04-11T04:07:03,42.805,6.029,-0.061,0.01,-0.04,103.0,103.0,100.0,13.4,1505.2,1.6,-0.7,1.8,2471.551,13.29,0.061,279.3
2024-04-11T04:10:03,42.805,6.029,-0.04,0.026,-0.012,103.0,102.0,100.0,13.4,1505.2,7.9,-0.8,1.8,2471.539,13.29,0.047,303.0
2024-04-11T04:13:03,42.805,6.029,-0.056,0.024,-0.017,103.0,103.0,101.0,13.4,1505.2,358.9,-0.8,1.9,2471.534,13.29,0.06,293.2
2024-04-11T04:16:03,42.805,6.029,-0.048,0.034,-0.023,105.0,101.0,102.0,13.3,1505.2,1.7,-0.7,1.8,2471.509,13.29,0.058,305.3
2024-04-11T04:19:03,42.805,6.029,-0.042,0.014,-0.031,103.0,103.0,101.0,13.4,1505.2,353.4,-0.8,1.8,2471.502,13.29,0.044,288.4
2024-04-11T04:22:03,42.805,6.029,-0.053,0.031,-0.032,103.0,102.0,101.0,13.3,1505.2,2.8,-0.8,1.8,2471.521,13.29,0.061,300.3
2024-04-11T04:25:03,42.805,6.029,-0.065,-0.001,-0.013,104.0,104.0,100.0,13.4,1505.2,357.4,-0.8,1.8,2471.546,13.29,0.065,269.1
2024-04-11T04:28:03,42.805,6.029,-0.06,0.018,-0.007,102.0,103.0,100.0,13.4,1505.2,357.2,-0.7,1.8,2471.555,13.29,0.062,286.7
2024-04-11T04:31:03,42.805,6.029,-0.056,0.034,-0.009,103.0,102.0,101.0,13.4,1505.2,3.6,-0.7,1.8,2471.551,13.29,0.065,301.3
2024-04-11T04:34:03,42.805,6.029,-0.028,0.037,0.005,103.0,103.0,102.0,13.4,1505.2,358.3,-0.8,1.8,2471.557,13.29,0.046,322.9
2024-04-11T04:37:03,42.805,6.029,-0.048,0.059,-0.006,102.0,102.0,101.0,13.4,1505.2,4.3,-0.8,1.8,2471.569,13.29,0.076,320.9
2024-04-11T04:40:03,42.805,6.029,-0.051,0.032,-0.042,103.0,101.0,101.0,13.3,1505.2,5.1,-0.8,1.8,2471.552,13.29,0.06,302.1
2024-04-11T04:43:03,42.805,6.029,-0.048,0.03,-0.015,103.0,102.0,101.0,13.3,1505.2,6.3,-0.8,1.8,2471.558,13.29,0.056,302.0
2024-04-11T04:46:03,42.805,6.029,-0.067,0.019,-0.015,103.0,103.0,100.0,13.4,1505.2,2.1,-0.8,1.8,2471.52,13.29,0.069,285.8
2024-04-11T04:49:03,42.805,6.029,-0.067,0.027,-0.008,103.0,101.0,102.0,13.4,1505.2,352.7,-0.8,1.8,2471.546,13.29,0.072,291.9
2024-04-11T04:52:03,42.805,6.029,-0.039,0.036,-0.007,103.0,101.0,101.0,13.4,1505.2,0.5,-0.8,1.8,2471.562,13.29,0.053,312.7
2024-04-11T04:55:03,42.805,6.029,-0.053,0.022,-0.028,102.0,102.0,102.0,13.3,1505.2,5.1,-0.8,1.8,2471.568,13.29,0.057,292.5
2024-04-11T04:58:03,42.805,6.029,-0.059,0.031,0.014,102.0,104.0,100.0,13.4,1505.2,6.6,-0.7,1.8,2471.549,13.29,0.066,297.7
2024-04-11T05:04:02,42.805,6.029,-0.044,0.025,-0.004,104.0,102.0,101.0,13.3,1505.2,352.9,-0.8,1.8,2471.569,13.28,0.05,299.6
2024-04-11T05:07:03,42.805,6.029,-0.034,0.036,0.003,103.0,101.0,100.0,13.3,1505.2,2.1,-0.8,1.8,2471.579,13.29,0.049,316.6
2024-04-11T05:10:03,42.805,6.029,-0.049,0.041,-0.001,102.0,102.0,101.0,13.3,1505.2,7.8,-0.8,1.8,2471.601,13.29,0.063,309.9
2024-04-11T05:13:03,42.805,6.029,-0.061,0.032,-0.021,104.0,101.0,102.0,13.4,1505.2,358.7,-0.8,1.8,2471.585,13.29,0.068,297.7
2024-04-11T05:16:03,42.805,6.029,-0.052,0.022,-0.004,104.0,104.0,99.0,13.3,1505.2,5.2,-0.8,1.8,2471.608,13.29,0.056,292.9
2024-04-11T05:19:03,42.805,6.029,-0.075,0.061,0.0,104.0,104.0,100.0,13.3,1505.2,5.7,-0.8,1.8,2471.579,13.29,0.096,309.1
2024-04-11T05:22:03,42.805,6.029,-0.041,0.015,-0.015,103.0,102.0,100.0,13.3,1505.2,358.9,-0.8,1.8,2471.637,13.29,0.043,290.1
2024-04-11T05:25:02,42.805,6.029,-0.058,0.017,-0.006,104.0,101.0,102.0,13.3,1505.2,357.7,-0.8,1.8,2471.62,13.29,0.06,286.3
2024-04-11T05:28:03,42.805,6.029,-0.063,0.033,-0.018,102.0,103.0,101.0,13.4,1505.2,353.2,-0.8,1.8,2471.591,13.29,0.071,297.6
2024-04-11T05:31:03,42.805,6.029,-0.058,0.044,0.009,101.0,103.0,102.0,13.3,1505.2,0.0,-0.8,1.8,2471.626,13.29,0.072,307.2
2024-04-11T05:34:03,42.805,6.029,-0.051,0.046,-0.022,103.0,102.0,101.0,13.4,1505.2,8.6,-0.8,1.8,2471.619,13.29,0.068,312.0
2024-04-11T05:37:03,42.805,6.029,-0.061,0.022,0.003,102.0,103.0,100.0,13.3,1505.2,5.3,-0.8,1.8,2471.584,13.29,0.064,289.8
2024-04-11T05:40:03,42.805,6.029,-0.03,0.054,0.0,103.0,103.0,100.0,13.3,1505.2,6.0,-0.8,1.8,2471.627,13.29,0.061,330.9
2024-04-11T05:43:03,42.805,6.029,-0.059,0.025,-0.008,102.0,102.0,101.0,13.4,1505.2,353.9,-0.8,1.8,2471.603,13.29,0.064,293.0
2024-04-11T05:46:03,42.805,6.029,-0.055,0.004,-0.013,103.0,102.0,101.0,13.4,1505.2,357.2,-0.8,1.8,2471.62,13.29,0.055,274.2
2024-04-11T05:49:03,42.805,6.029,-0.07,0.035,-0.036,103.0,102.0,100.0,13.4,1505.2,354.0,-0.7,1.8,2471.633,13.29,0.078,296.6
2024-04-11T05:52:03,42.805,6.029,-0.053,0.033,-0.028,102.0,102.0,101.0,13.4,1505.2,4.0,-0.7,1.8,2471.607,13.29,0.062,301.9
2024-04-11T05:55:03,42.805,6.029,-0.043,0.025,-0.002,103.0,103.0,101.0,13.4,1505.2,359.4,-0.8,1.8,2471.646,13.29,0.049,300.2
2024-04-11T05:58:03,42.805,6.029,-0.058,0.039,-0.025,103.0,102.0,101.0,13.3,1505.2,0.5,-0.8,1.8,2471.641,13.29,0.069,303.9
2024-04-11T06:04:03,42.805,6.029,-0.059,0.029,0.006,102.0,102.0,101.0,13.4,1505.2,6.0,-0.8,1.8,2471.665,13.28,0.065,296.2
2024-04-11T06:07:03,42.805,6.029,-0.05,0.008,-0.042,103.0,103.0,101.0,13.4,1505.2,2.2,-0.8,1.8,2471.684,13.29,0.05,279.1
2024-04-11T06:10:03,42.805,6.029,-0.034,0.049,-0.013,104.0,101.0,101.0,13.4,1505.2,6.0,-0.8,1.8,2471.657,13.29,0.059,325.2
2024-04-11T06:13:03,42.805,6.029,-0.068,0.034,-0.008,103.0,103.0,101.0,13.4,1505.2,352.9,-0.8,1.8,2471.681,13.29,0.076,296.6
2024-04-11T06:16:03,42.805,6.029,-0.063,0.049,-0.039,101.0,103.0,101.0,13.4,1505.2,0.5,-0.8,1.8,2471.644,13.29,0.079,307.9
2024-04-11T06:19:07,42.805,6.029,-0.046,0.042,0.012,102.0,102.0,103.0,13.3,1505.2,1.0,-0.8,1.8,2471.696,13.29,0.062,312.4
2024-04-11T06:22:03,42.805,6.029,-0.08,0.052,-0.01,103.0,103.0,100.0,13.4,1505.2,0.5,-0.7,1.8,2471.69,13.29,0.095,303.0
2024-04-11T06:25:03,42.805,6.029,-0.042,0.033,0.007,103.0,101.0,101.0,13.4,1505.2,3.2,-0.8,1.8,2471.671,13.29,0.053,308.2
2024-04-11T06:28:03,42.805,6.029,-0.059,0.011,-0.026,102.0,102.0,101.0,13.4,1505.2,1.1,-0.7,1.8,2471.68,13.29,0.06,280.6
2024-04-11T06:31:03,42.805,6.029,-0.06,0.028,-0.035,103.0,103.0,101.0,13.3,1505.2,0.5,-0.8,1.8,2471.701,13.29,0.066,295.0
2024-04-11T06:34:03,42.805,6.029,-0.035,0.033,-0.016,104.0,102.0,101.0,13.3,1505.2,0.5,-0.8,1.8,2471.677,13.29,0.048,313.3
2024-04-11T06:37:03,42.805,6.029,-0.03,0.012,-0.022,102.0,102.0,101.0,13.3,1505.2,8.8,-0.8,1.8,2471.67,13.29,0.032,291.8
2024-04-11T06:40:03,42.805,6.029,-0.058,0.032,-0.03,102.0,102.0,101.0,13.4,1505.2,357.1,-0.8,1.8,2471.733,13.29,0.066,298.9
2024-04-11T06:43:03,42.805,6.029,-0.058,0.026,-0.023,103.0,103.0,101.0,13.4,1505.2,353.1,-0.8,1.8,2471.693,13.29,0.063,294.1
2024-04-11T06:46:03,42.805,6.029,-0.05,0.049,0.001,103.0,102.0,101.0,13.4,1505.2,357.7,-0.8,1.8,2471.718,13.29,0.07,314.4
2024-04-11T06:49:03,42.805,6.029,-0.07,0.007,-0.046,102.0,102.0,101.0,13.3,1505.2,352.3,-0.8,1.8,2471.693,13.29,0.07,275.7
2024-04-11T06:52:03,42.805,6.029,-0.08,0.029,-0.025,103.0,102.0,101.0,13.4,1505.2,357.8,-0.8,1.8,2471.691,13.29,0.085,289.9
2024-04-11T06:55:03,42.805,6.029,-0.052,0.053,0.017,103.0,102.0,101.0,13.4,1505.2,2.6,-0.7,1.8,2471.696,13.29,0.074,315.5
2024-04-11T06:58:03,42.805,6.029,-0.049,0.027,-0.02,102.0,101.0,102.0,13.4,1505.2,3.9,-0.8,1.8,2471.743,13.29,0.055,298.9
2024-04-11T08:04:03,42.805,6.029,-0.051,0.052,-0.004,102.0,102.0,101.0,13.3,1505.2,3.4,-0.8,1.8,2472.248,13.28,0.072,315.5
2024-04-11T08:07:03,42.805,6.029,-0.049,0.021,-0.034,102.0,101.0,100.0,13.3,1505.2,3.6,-0.8,1.8,2472.165,13.28,0.053,293.2
2024-04-11T08:10:03,42.805,6.029,-0.04,0.017,-0.026,104.0,102.0,101.0,13.4,1505.2,358.9,-0.7,1.8,2472.154,13.28,0.043,293.0
2024-04-11T08:13:03,42.805,6.029,-0.035,0.029,-0.011,103.0,102.0,101.0,13.3,1505.2,0.5,-0.8,1.8,2472.073,13.28,0.045,309.6
2024-04-11T08:16:03,42.805,6.029,-0.055,0.035,-0.013,104.0,103.0,102.0,13.4,1505.2,352.8,-0.8,1.8,2472.075,13.29,0.065,302.5
2024-04-11T08:19:05,42.805,6.029,-0.042,0.033,-0.003,103.0,103.0,101.0,13.3,1505.2,358.2,-0.8,1.8,2472.032,13.29,0.053,308.2
2024-04-11T08:22:03,42.805,6.029,-0.039,0.037,0.005,103.0,102.0,102.0,13.4,1505.2,355.7,-0.8,1.8,2471.997,13.29,0.053,313.5
2024-04-11T08:25:02,42.805,6.029,-0.052,0.057,-0.018,103.0,102.0,101.0,13.4,1505.2,4.0,-0.8,1.8,2471.989,13.29,0.077,317.6
2024-04-11T08:28:03,42.805,6.029,-0.055,0.055,-0.02,102.0,102.0,101.0,13.4,1505.2,8.7,-0.8,1.8,2471.946,13.29,0.077,315.0
2024-04-11T08:31:03,42.805,6.029,-0.063,0.048,0.012,103.0,102.0,101.0,13.4,1505.2,3.8,-0.8,1.8,2471.902,13.29,0.079,307.3
2024-04-11T08:40:02,42.805,6.029,-0.072,0.033,-0.024,104.0,102.0,101.0,13.3,1505.2,356.7,-0.8,1.8,2471.875,13.29,0.079,294.6
2024-04-11T08:43:03,42.805,6.029,-0.066,0.054,-0.017,102.0,102.0,101.0,13.4,1505.2,357.1,-0.8,1.8,2471.847,13.29,0.085,309.3
2024-04-11T08:46:03,42.805,6.029,-0.046,0.05,0.008,103.0,102.0,102.0,13.4,1505.2,0.0,-0.8,1.8,2471.858,13.29,0.067,317.4
2024-04-11T08:49:03,42.805,6.029,-0.028,0.014,0.021,103.0,102.0,101.0,13.4,1505.2,0.5,-0.8,1.8,2471.849,13.29,0.031,296.6
2024-04-11T08:52:03,42.805,6.029,-0.026,0.049,0.001,103.0,102.0,101.0,13.4,1505.2,9.2,-0.7,1.8,2471.815,13.29,0.055,332.1
2024-04-11T08:55:03,42.805,6.029,-0.049,0.045,-0.024,102.0,102.0,101.0,13.4,1505.2,4.7,-0.8,1.8,2471.787,13.29,0.066,312.6
2024-04-11T08:58:03,42.805,6.029,-0.059,0.045,0.015,103.0,103.0,101.0,13.3,1505.2,2.6,-0.8,1.8,2471.787,13.29,0.074,307.3
2024-04-11T09:04:03,42.805,6.029,-0.049,0.032,-0.026,104.0,102.0,102.0,13.4,1505.2,3.7,-0.8,1.8,2471.777,13.29,0.058,303.2
2024-04-11T09:07:03,42.805,6.029,-0.051,0.04,-0.011,102.0,102.0,101.0,13.3,1505.2,354.7,-0.8,1.8,2471.841,13.29,0.064,308.1
2024-04-11T09:10:03,42.805,6.029,-0.03,0.037,0.0,102.0,102.0,101.0,13.4,1505.2,7.6,-0.8,1.8,2471.807,13.29,0.047,321.0
2024-04-11T09:13:03,42.805,6.029,-0.056,0.043,-0.009,103.0,102.0,100.0,13.3,1505.2,357.5,-0.8,1.8,2471.784,13.29,0.07,307.5
2024-04-11T09:16:03,42.805,6.029,-0.059,0.048,-0.013,102.0,102.0,102.0,13.4,1505.2,8.0,-0.8,1.8,2471.787,13.29,0.076,309.1
2024-04-11T09:19:03,42.805,6.029,-0.043,0.034,-0.024,101.0,103.0,101.0,13.4,1505.2,5.2,-0.8,1.8,2471.769,13.29,0.054,308.3
2024-04-11T09:22:03,42.805,6.029,-0.034,0.038,-0.001,103.0,101.0,102.0,13.4,1505.2,7.7,-0.7,1.8,2471.764,13.29,0.05,318.2
2024-04-11T09:25:03,42.805,6.029,-0.055,0.038,-0.008,103.0,102.0,101.0,13.4,1505.2,353.3,-0.8,1.8,2471.755,13.29,0.066,304.6
2024-04-11T09:28:03,42.805,6.029,-0.036,0.027,0.02,103.0,102.0,100.0,13.4,1505.2,356.5,-0.8,1.8,2471.763,13.29,0.045,306.9
2024-04-11T09:31:03,42.805,6.029,-0.034,0.03,0.002,103.0,102.0,101.0,13.4,1505.2,356.3,-0.7,1.8,2471.776,13.29,0.045,311.4
2024-04-11T09:34:03,42.805,6.029,-0.037,0.024,-0.019,102.0,101.0,101.0,13.4,1505.2,9.2,-0.7,1.8,2471.75,13.29,0.044,303.0
2024-04-11T09:37:03,42.805,6.029,-0.05,0.057,0.01,102.0,101.0,101.0,13.4,1505.2,354.7,-0.8,1.8,2471.695,13.29,0.075,318.7
2024-04-11T09:40:03,42.805,6.029,-0.063,0.034,0.001,102.0,102.0,100.0,13.4,1505.2,2.3,-0.7,1.8,2471.733,13.29,0.071,298.4
2024-04-11T09:43:03,42.805,6.029,-0.04,0.064,-0.008,102.0,102.0,100.0,13.4,1505.2,0.0,-0.8,1.8,2471.717,13.29,0.075,328.0
2024-04-11T09:46:03,42.805,6.029,-0.041,0.028,-0.015,103.0,102.0,99.0,13.4,1505.2,358.3,-0.8,1.8,2471.747,13.29,0.049,304.3
2024-04-11T09:49:03,42.805,6.029,-0.054,0.026,-0.014,101.0,101.0,100.0,13.4,1505.2,352.2,-0.8,1.8,2471.732,13.29,0.059,295.7
2024-04-11T09:52:03,42.805,6.029,-0.056,0.038,0.015,102.0,101.0,102.0,13.3,1505.2,358.3,-0.8,1.8,2471.745,13.29,0.067,304.2
2024-04-11T09:55:03,42.805,6.029,-0.047,0.015,-0.029,103.0,102.0,102.0,13.3,1505.2,2.2,-0.7,1.8,2471.717,13.29,0.049,287.7
2024-04-11T09:58:03,42.805,6.029,-0.043,0.044,0.01,103.0,102.0,101.0,13.4,1505.2,358.9,-0.7,1.8,2471.768,13.29,0.061,315.7
2024-04-11T10:04:03,42.805,6.029,-0.036,0.039,-0.006,104.0,102.0,101.0,13.4,1505.2,6.4,-0.8,1.8,2471.758,13.28,0.053,317.3
2024-04-11T10:07:03,42.805,6.029,-0.055,0.037,-0.012,103.0,102.0,101.0,13.3,1505.2,357.3,-0.8,1.8,2471.754,13.29,0.066,303.9
2024-04-11T10:10:03,42.805,6.029,-0.049,0.054,-0.013,102.0,103.0,100.0,13.3,1505.2,4.9,-0.7,1.8,2471.773,13.29,0.072,317.8
2024-04-11T10:13:03,42.805,6.029,-0.047,0.029,0.009,103.0,104.0,100.0,13.4,1505.2,1.0,-0.7,1.8,2471.765,13.29,0.055,301.7
2024-04-11T10:16:03,42.805,6.029,-0.046,0.043,-0.008,102.0,103.0,100.0,13.4,1505.2,5.2,-0.7,1.8,2471.73,13.29,0.062,313.1
2024-04-11T10:19:03,42.805,6.029,-0.032,0.03,-0.002,102.0,103.0,102.0,13.4,1505.2,9.4,-0.8,1.8,2471.72,13.29,0.043,313.1
2024-04-11T10:22:03,42.805,6.029,-0.059,0.0,-0.04,102.0,103.0,101.0,13.3,1505.2,354.7,-0.7,1.8,2471.742,13.29,0.058,270.0
2024-04-11T10:25:03,42.805,6.029,-0.036,0.026,-0.017,103.0,103.0,100.0,13.4,1505.2,358.8,-0.7,1.8,2471.737,13.29,0.044,305.8
2024-04-11T10:28:03,42.805,6.029,-0.056,0.037,-0.017,102.0,101.0,101.0,13.4,1505.2,352.7,-0.8,1.8,2471.7,13.29,0.067,303.5
2024-04-11T10:31:03,42.805,6.029,-0.048,0.031,-0.022,102.0,101.0,101.0,13.3,1505.2,357.1,-0.8,1.8,2471.737,13.29,0.057,302.9
2024-04-11T10:34:03,42.805,6.029,-0.064,0.016,-0.017,102.0,102.0,100.0,13.4,1505.2,351.6,-0.7,1.8,2471.702,13.29,0.065,284.0
2024-04-11T10:37:03,42.805,6.029,-0.076,0.032,-0.003,103.0,101.0,100.0,13.4,1505.2,358.2,-0.8,1.8,2471.708,13.29,0.082,292.8
2024-04-11T10:40:03,42.805,6.029,-0.065,0.036,-0.019,102.0,102.0,101.0,13.3,1505.2,7.5,-0.7,1.8,2471.709,13.29,0.074,299.0
2024-04-11T10:43:03,42.805,6.029,-0.047,0.03,-0.043,103.0,103.0,99.0,13.3,1505.2,355.8,-0.7,1.8,2471.689,13.29,0.055,302.6
2024-04-11T10:46:03,42.805,6.029,-0.048,0.051,-0.033,103.0,101.0,101.0,13.4,1505.2,6.3,-0.8,1.8,2471.721,13.29,0.07,316.7
2024-04-11T10:49:03,42.805,6.029,-0.062,0.048,-0.002,101.0,101.0,101.0,13.4,1505.2,355.8,-0.8,1.8,2471.705,13.29,0.078,307.7
2024-04-11T10:52:03,42.805,6.029,-0.036,0.042,-0.008,103.0,102.0,101.0,13.4,1505.2,9.5,-0.8,1.8,2471.711,13.29,0.055,319.4
2024-04-11T10:55:03,42.805,6.029,-0.049,0.022,-0.018,103.0,102.0,100.0,13.4,1505.2,351.8,-0.8,1.8,2471.682,13.29,0.053,294.2
2024-04-11T10:58:03,42.805,6.029,-0.048,0.048,-0.003,102.0,102.0,101.0,13.4,1505.2,2.9,-0.8,1.8,2471.642,13.29,0.067,315.0
2024-04-11T11:01:03,42.805,6.029,-0.058,0.042,-0.021,102.0,102.0,100.0,13.4,1505.2,351.9,-0.8,1.8,2471.685,13.29,0.071,305.9
2024-04-11T11:04:03,42.805,6.029,-0.057,0.006,-0.024,103.0,103.0,100.0,13.4,1505.2,356.0,-0.7,1.8,2471.696,13.29,0.057,276.0
2024-04-11T11:07:03,42.805,6.029,-0.032,0.013,-0.01,104.0,101.0,101.0,13.4,1505.2,351.7,-0.7,1.8,2471.672,13.29,0.034,292.1
2024-04-11T11:10:03,42.805,6.029,-0.077,0.062,-0.009,102.0,103.0,101.0,13.4,1505.2,1.0,-0.8,1.8,2471.684,13.29,0.098,308.8
2024-04-11T11:13:03,42.805,6.029,-0.057,0.023,-0.006,102.0,102.0,101.0,13.3,1505.2,359.4,-0.7,1.8,2471.688,13.29,0.061,292.0
2024-04-11T11:16:03,42.805,6.029,-0.064,0.066,-0.027,102.0,102.0,100.0,13.3,1505.2,0.5,-0.8,1.8,2471.665,13.29,0.091,315.9
2024-04-11T11:19:07,42.805,6.029,-0.055,0.05,0.01,102.0,102.0,101.0,13.4,1505.2,6.8,-0.8,1.8,2471.692,13.29,0.074,312.3
2024-04-11T11:22:03,42.805,6.029,-0.046,0.036,-0.006,103.0,102.0,101.0,13.4,1505.2,4.5,-0.8,1.8,2471.686,13.29,0.058,308.0
2024-04-11T11:25:03,42.805,6.029,-0.046,0.038,-0.011,102.0,102.0,101.0,13.4,1505.2,352.8,-0.8,1.8,2471.688,13.29,0.059,309.6
2024-04-11T11:28:03,42.805,6.029,-0.038,0.03,-0.01,102.0,102.0,101.0,13.4,1505.2,357.7,-0.7,1.8,2471.684,13.29,0.048,308.3
2024-04-11T11:31:03,42.805,6.029,-0.059,0.049,0.02,102.0,102.0,101.0,13.4,1505.2,353.6,-0.8,1.8,2471.69,13.29,0.076,309.7
2024-04-11T11:34:03,42.805,6.029,-0.052,0.046,-0.017,102.0,103.0,101.0,13.4,1505.2,7.6,-0.8,1.8,2471.626,13.29,0.069,311.5
2024-04-11T11:37:03,42.805,6.029,-0.056,0.028,-0.002,102.0,101.0,102.0,13.3,1505.2,4.6,-0.8,1.8,2471.665,13.29,0.062,296.6
2024-04-11T11:40:03,42.805,6.029,-0.055,0.048,-0.004,102.0,103.0,102.0,13.3,1505.2,4.2,-0.7,1.8,2471.674,13.29,0.072,311.1
2024-04-11T11:43:03,42.805,6.029,-0.063,0.002,-0.047,103.0,102.0,101.0,13.4,1505.2,4.9,-0.7,1.8,2471.635,13.29,0.063,271.8
2024-04-11T11:46:03,42.805,6.029,-0.056,0.038,-0.005,104.0,102.0,101.0,13.4,1505.2,7.1,-0.8,1.8,2471.651,13.29,0.067,304.2
2024-04-11T11:49:03,42.805,6.029,-0.044,0.039,-0.006,103.0,102.0,100.0,13.4,1505.2,4.7,-0.8,1.8,2471.641,13.29,0.058,311.6
2024-04-11T11:52:03,42.805,6.029,-0.047,0.015,-0.003,103.0,101.0,101.0,13.3,1505.2,354.0,-0.8,1.8,2471.629,13.29,0.049,287.7
2024-04-11T11:55:03,42.805,6.029,-0.059,0.028,0.003,102.0,101.0,101.0,13.4,1505.2,355.4,-0.7,1.8,2471.619,13.29,0.065,295.4
2024-04-11T11:58:03,42.805,6.029,-0.05,0.047,-0.011,103.0,102.0,101.0,13.4,1505.2,355.3,-0.7,1.8,2471.685,13.29,0.068,313.2
2024-04-11T12:04:03,42.805,6.029,-0.059,0.038,-0.021,102.0,102.0,101.0,13.3,1505.2,356.0,-0.7,1.8,2471.674,13.29,0.07,302.8